Bangkok (Don Mueang), Thailand

4:58 PM +07 on July 22, 2017 (GMT +0700)
Bangkok International

Weather History for VTBD - January, 2013

Change the Weather History Date:

Sunday, January 6, 2013

  Actual Average Record
Temperature  
Mean Temperature 84 °F -  
Max Temperature 92 °F 89 °F 95 °F (2000)
Min Temperature 75 °F 72 °F 68 °F (1997)
Cooling Degree Days 18    
Growing Degree Days 34 (Base 50)    
Moisture  
Dew Point 65 °F    
Average Humidity 58    
Maximum Humidity 78    
Minimum Humidity 32    
Precipitation  
Precipitation 0.00 in 0.01 in - ()
Sea Level Pressure  
Sea Level Pressure 29.84 in    
Wind  
Wind Speed 3 mph ()    
Max Wind Speed 9 mph    
Max Gust Speed -    
Visibility 5.3 miles    
Events      
Averages and records for this station are not official NWS values.
T = Trace of Precipitation, MM = Missing Value Source: Averaged Metar Reports

Daily Weather History Graph

Daily Weather History Graph

Search for Another Location

Airport or City:

Trip Planner

Search our weather history database for the weather conditions in past years. The results will help you decide how hot, cold, wet, or windy it might be!

Date:

Astronomy

Jan. 06, 2013 Rise Set
Actual Time 6:43 AM +07 6:03 PM +07
Civil Twilight 6:20 AM +07 6:26 PM +07
Nautical Twilight 5:53 AM +07 6:53 PM +07
Astronomical Twilight 5:27 AM +07 7:19 PM +07
Moon 12:48 AM +07 (1/6) 12:47 PM +07 (1/6)
Length of Visible Light 12h 06m
Length of Day
11h 20m
Last Quarter, 39% of the Moon is Illuminated
Jan 6
Last Quarter
Jan 12
New
Jan 19
First Quarter
Jan 27
Full
Feb 3
Last Quarter

Hourly Weather History & Observations

Time (+07) Temp. Heat Index Dew Point Humidity Pressure Visibility Wind Dir Wind Speed Gust Speed Precip Events Conditions
12:00 AM 77.0 °F - 64.4 °F 65% 29.83 in 6.2 mi North 5.8 mph - N/A   Mostly Cloudy
12:30 AM 78.8 °F - 62.6 °F 57% 29.83 in 5.6 mi SSE 3.5 mph - N/A   Scattered Clouds
1:00 AM 78 °F - 64 °F 52% 29.83 in 5 mi ENE 2.3 mph - -   Haze
1:00 AM 77.0 °F - 64.4 °F 65% 29.80 in 5.0 mi ENE 2.3 mph - N/A   Scattered Clouds
1:30 AM 78.8 °F - 64.4 °F 61% 29.80 in 5.0 mi South 2.3 mph - N/A   Scattered Clouds
2:00 AM 77.0 °F - 64.4 °F 65% 29.80 in 5.0 mi East 3.5 mph - N/A   Scattered Clouds
2:30 AM 77.0 °F - 64.4 °F 65% 29.80 in 4.3 mi ESE 2.3 mph - N/A   Scattered Clouds
3:00 AM 77.0 °F - 66.2 °F 69% 29.80 in 4.3 mi East 2.3 mph - N/A   Scattered Clouds
3:30 AM 77.0 °F - 68.0 °F 74% 29.80 in 3.7 mi Calm Calm - N/A   Scattered Clouds
4:00 AM 77.0 °F - 68.0 °F 74% 29.80 in 3.1 mi Calm Calm - N/A   Scattered Clouds
4:30 AM 77.0 °F - 68.0 °F 74% 29.80 in 3.1 mi Calm Calm - N/A   Scattered Clouds
5:00 AM 77.0 °F - 68.0 °F 74% 29.80 in 3.1 mi Calm Calm - N/A   Scattered Clouds
5:30 AM 77.0 °F - 68.0 °F 74% 29.83 in 3.1 mi Calm Calm - N/A   Scattered Clouds
6:00 AM 75.2 °F - 66.2 °F 73% 29.83 in 3.1 mi Calm Calm - N/A   Scattered Clouds
6:30 AM 75.2 °F - 66.2 °F 73% 29.83 in 3.1 mi Calm Calm - N/A   Scattered Clouds
7:00 AM 75.2 °F - 68.0 °F 78% 29.86 in 3.1 mi Calm Calm - N/A   Scattered Clouds
7:30 AM 75.2 °F - 68.0 °F 78% 29.86 in 3.7 mi Calm Calm - N/A   Scattered Clouds
8:00 AM 77.0 °F - 68.0 °F 74% 29.89 in 4.3 mi Calm Calm - N/A   Scattered Clouds
8:30 AM 77.0 °F - 66.2 °F 69% 29.92 in 4.3 mi East 6.9 mph - N/A   Scattered Clouds
9:00 AM 77.0 °F - 66.2 °F 69% 29.92 in 5.0 mi North 2.3 mph - N/A   Scattered Clouds
9:30 AM 78.8 °F - 66.2 °F 65% 29.95 in 5.0 mi East 4.6 mph - N/A   Scattered Clouds
10:00 AM 82.4 °F 84.6 °F 66.2 °F 58% 29.95 in 5.6 mi East 3.5 mph - N/A   Mostly Cloudy
10:30 AM 84.2 °F 85.6 °F 64.4 °F 51% 29.92 in 5.6 mi Calm Calm - N/A   Mostly Cloudy
11:00 AM 84.2 °F 85.6 °F 64.4 °F 51% 29.92 in 5.6 mi NE 3.5 mph - N/A   Mostly Cloudy
11:30 AM 86.0 °F 87.3 °F 64.4 °F 48% 29.92 in 5.6 mi NNE 2.3 mph - N/A   Mostly Cloudy
12:00 PM 86.0 °F 86.6 °F 62.6 °F 45% 29.89 in 6.2 mi NE 6.9 mph - N/A   Mostly Cloudy
12:30 PM 87.8 °F 88.5 °F 62.6 °F 43% 29.86 in 6.2 mi East 5.8 mph - N/A   Mostly Cloudy
1:00 PM 88 °F - 62 °F 32% 29.86 in 6 mi NNE 3.5 mph - -   Scattered Clouds
1:00 PM 87.8 °F 88.5 °F 62.6 °F 43% 29.86 in 6.2 mi NNE 3.5 mph - N/A   Scattered Clouds
1:30 PM 87.8 °F 88.5 °F 62.6 °F 43% 29.83 in 6.2 mi NNE 5.8 mph - N/A   Scattered Clouds
2:00 PM 89.6 °F 90.1 °F 62.6 °F 40% 29.80 in 6.2 mi East 6.9 mph - N/A   Scattered Clouds
2:30 PM 91.4 °F 92.1 °F 62.6 °F 38% 29.80 in 6.2 mi ESE 5.8 mph - N/A   Scattered Clouds
3:00 PM 91.4 °F 91.4 °F 60.8 °F 36% 29.77 in 6.2 mi NE 5.8 mph - N/A   Scattered Clouds
3:30 PM 91.4 °F 91.4 °F 60.8 °F 36% 29.77 in 6.2 mi ENE 6.9 mph - N/A   Scattered Clouds
4:00 PM 91.4 °F 92.1 °F 62.6 °F 38% 29.77 in 6.2 mi NNW 5.8 mph - N/A   Scattered Clouds
4:30 PM 91.4 °F 92.1 °F 62.6 °F 38% 29.77 in 6.2 mi NW 9.2 mph - N/A   Scattered Clouds
5:00 PM 89.6 °F 91.1 °F 64.4 °F 43% 29.80 in 6.2 mi NNE 4.6 mph - N/A   Scattered Clouds
5:30 PM 87.8 °F 89.4 °F 64.4 °F 46% 29.80 in 6.2 mi NW 5.8 mph - N/A   Scattered Clouds
6:00 PM 86.0 °F 88.2 °F 66.2 °F 51% 29.80 in 6.2 mi North 5.8 mph - N/A   Mostly Cloudy
6:30 PM 84.2 °F 86.6 °F 66.2 °F 55% 29.80 in 6.2 mi North 5.8 mph - N/A   Mostly Cloudy
7:00 PM 84 °F - 66 °F 46% 29.84 in 6 mi North 5.8 mph - -   Scattered Clouds
7:00 PM 84.2 °F 86.6 °F 66.2 °F 55% 29.83 in 6.2 mi North 5.8 mph - N/A   Mostly Cloudy
7:30 PM 84.2 °F 86.6 °F 66.2 °F 55% 29.83 in 6.2 mi NNW 6.9 mph - N/A   Mostly Cloudy
8:00 PM 84.2 °F 86.6 °F 66.2 °F 55% 29.83 in 6.2 mi NNW 8.1 mph - N/A   Mostly Cloudy
8:30 PM 82.4 °F 84.6 °F 66.2 °F 58% 29.86 in 6.2 mi North 5.8 mph - N/A   Mostly Cloudy
9:00 PM 80.6 °F 83.2 °F 68.0 °F 65% 29.86 in 6.2 mi NNW 4.6 mph - N/A   Mostly Cloudy
9:30 PM 80.6 °F 83.2 °F 68.0 °F 65% 29.86 in 6.2 mi NW 8.1 mph - N/A   Mostly Cloudy
10:00 PM 80.6 °F 82.7 °F 66.2 °F 61% 29.86 in 6.2 mi NNW 6.9 mph - N/A   Mostly Cloudy
10:30 PM 80.6 °F 82.7 °F 66.2 °F 61% 29.86 in 6.2 mi NW 4.6 mph - N/A   Mostly Cloudy
11:00 PM 78.8 °F - 66.2 °F 65% 29.86 in 6.2 mi NW 9.2 mph - N/A   Mostly Cloudy
11:30 PM 78.8 °F - 66.2 °F 65% 29.86 in 6.2 mi North 4.6 mph - N/A   Mostly Cloudy